sat.trackr.live / text

‹ back to catalog

FLOCK 4G-26

NORAD 62633 · 2025-009AA

PAYLOAD ACTIVE UNKNOWN

§ Identity

Operator
Country
US
Launch date
2025-01-14
Launch site
AFWTR
Launch vehicle
Mass (kg)
RCS (m²)

Purposes: earth_obs

External: N2YO · Heavens-Above · Gunter

§ Orbital elements

Epoch: 2026-09-19T12:54:55.815264Z

Period
94.04 min
Inclination
97.3959°
Eccentricity
0.0002432
Mean motion
15.31260143 rev/d
Perigee alt
470.4 km
Apogee alt
473.7 km
Semi-major
6,850.2 km
B*
2.2482e-4
RAAN
344.2057°
Arg perigee
353.1699°
Mean anomaly
6.9509°
Rev number
9,334

§ Raw data

FLOCK 4G-261 62633U 25009AA  26262.53814601  .00006711  00000+0  22482-3 0  99972 62633  97.3959 344.2057 0002432 353.1699   6.9509 15.31260143 93340

JSON: /api/v1/satellites/62633 · /tle

For live sub-satellite position, see the globe view (requires WebGL).

§ Visibility from observer

Set your observer location to see the next 7 days of passes ≥ 10°. The values pass through the URL so the page stays shareable.

No JS? Fill the form by hand. The geolocation button needs JavaScript.